GW4318 Weather Reports


Display with metric or nautical units.
time (UTC)temp
F
wind
direction
speed
MPH
gust
MPH
rain 1hr
in
rain 24hr
in
rain mn
in
humidity
%
barometer
mb
20240620222039 90 344 0.0 2.0 0.00 0.00 0.00 70 1020.9
20240620221019 89 324 0.0 1.0 0.00 0.00 0.00 72 1021.0
20240620220019 89 335 0.0 3.0 0.00 0.00 0.00 72 1021.1
20240620215019 90 340 0.0 2.0 0.00 0.00 0.00 70 1021.0
20240620214040 90 299 1.0 4.0 0.00 0.00 0.00 69 1021.0
20240620213017 91 285 1.0 3.0 0.00 0.00 0.00 69 1021.0
20240620212016 91 31 1.0 6.0 0.00 0.00 0.00 67 1020.9
20240620211020 92 318 1.0 4.0 0.00 0.00 0.00 66 1020.8
20240620210020 93 308 1.0 4.0 0.00 0.00 0.00 64 1020.8
20240620205017 94 319 1.0 5.0 0.00 0.00 0.00 63 1020.9
20240620204017 96 337 2.0 6.0 0.00 0.00 0.00 60 1020.9
20240620203017 96 339 1.0 4.0 0.00 0.00 0.00 60 1020.9
20240620202017 95 302 1.0 4.0 0.00 0.00 0.00 61 1021.1
20240620201018 95 313 2.0 7.0 0.00 0.00 0.00 62 1021.3
20240620200018 95 359 2.0 6.0 0.00 0.00 0.00 62 1021.2
20240620195018 95 323 2.0 6.0 0.00 0.00 0.00 62 1021.3
20240620194018 95 22 2.0 5.0 0.00 0.00 0.00 62 1021.3
20240620193018 95 328 2.0 4.0 0.00 0.00 0.00 62 1021.4
20240620192019 95 24 2.0 6.0 0.00 0.00 0.00 63 1021.7
20240620191018 96 334 2.0 7.0 0.00 0.00 0.00 60 1021.8
20240620190018 97 318 1.0 4.0 0.00 0.00 0.00 57 1021.9
20240620185018 97 334 1.0 4.0 0.00 0.00 0.00 58 1022.1
20240620184019 96 318 1.0 4.0 0.00 0.00 0.00 59 1022.2
20240620183039 96 337 2.0 6.0 0.00 0.00 0.00 59 1022.3
20240620182019 96 353 2.0 5.0 0.00 0.00 0.00 61 1022.4
20240620181020 97 333 1.0 4.0 0.00 0.00 0.00 60 1022.5
20240620180019 96 7 1.0 4.0 0.00 0.00 0.00 61 1022.7
20240620175016 95 353 1.0 4.0 0.00 0.00 0.00 62 1022.8
20240620174016 95 323 1.0 5.0 0.00 0.00 0.00 62 1022.9
20240620173018 94 351 1.0 4.0 0.00 0.00 0.00 65 1023.0
20240620172020 95 336 2.0 5.0 0.00 0.00 0.00 64 1023.2
20240620171017 95 14 1.0 4.0 0.00 0.00 0.00 64 1023.3
20240620170017 94 332 2.0 4.0 0.00 0.00 0.00 65 1023.4
20240620165017 94 335 1.0 5.0 0.00 0.00 0.00 65 1023.5
20240620164021 93 332 2.0 5.0 0.00 0.00 0.00 66 1023.6
20240620163018 92 97 1.0 2.0 0.00 0.00 0.00 69 1023.7
20240620162018 92 325 1.0 4.0 0.00 0.00 0.00 68 1023.8
20240620161058 92 330 1.0 4.0 0.00 0.00 0.00 69 1023.8
20240620160018 92 354 1.0 3.0 0.00 0.00 0.00 68 1023.8
20240620155018 91 78 1.0 4.0 0.00 0.00 0.00 68 1023.9
20240620154038 91 45 1.0 5.0 0.00 0.00 0.00 69 1024.0
20240620153018 90 343 2.0 5.0 0.00 0.00 0.00 70 1024.0
20240620152018 90 335 2.0 4.0 0.00 0.00 0.00 71 1024.0
20240620151018 89 346 2.0 5.0 0.00 0.00 0.00 71 1024.1
20240620150039 89 338 1.0 5.0 0.00 0.00 0.00 72 1024.2
20240620145039 89 241 1.0 2.0 0.00 0.00 0.00 71 1024.2
20240620144019 87 0 1.0 4.0 0.00 0.00 0.00 72 1024.2
20240620143019 87 28 1.0 5.0 0.00 0.00 0.00 73 1024.2
20240620142019 87 335 1.0 4.0 0.00 0.00 0.00 73 1024.2
20240620141019 86 334 0.0 2.0 0.00 0.00 0.00 74 1024.3
20240620140059 85 297 1.0 3.0 0.00 0.00 0.00 74 1024.3
20240620135016 85 318 1.0 3.0 0.00 0.00 0.00 75 1024.2
20240620134020 84 357 1.0 4.0 0.00 0.00 0.00 74 1024.2
20240620133040 84 130 1.0 3.0 0.00 0.00 0.00 76 1024.2
20240620132019 84 318 1.0 4.0 0.00 0.00 0.00 75 1024.2
20240620131037 83 336 1.0 4.0 0.00 0.00 0.00 75 1024.2
20240620130057 82 328 1.0 3.0 0.00 0.00 0.00 76 1024.3
20240620125020 80 290 1.0 2.0 0.00 0.00 0.00 77 1024.3
20240620124017 79 309 0.0 2.0 0.00 0.00 0.00 79 1024.3
20240620123017 78 338 1.0 4.0 0.00 0.00 0.00 80 1024.3
20240620122017 78 75 1.0 5.0 0.00 0.00 0.00 81 1024.4
20240620121018 77 71 1.0 3.0 0.00 0.00 0.00 81 1024.5
20240620120021 76 316 1.0 3.0 0.00 0.00 0.00 81 1024.4
20240620115018 75 85 1.0 3.0 0.00 0.00 0.00 82 1024.5
20240620114018 75 85 1.0 4.0 0.00 0.00 0.00 80 1024.6
20240620113018 75 314 0.0 2.0 0.00 0.00 0.00 81 1024.5
20240620112018 74 341 1.0 6.0 0.00 0.00 0.00 80 1024.5
20240620111018 74 25 0.0 2.0 0.00 0.00 0.00 81 1024.6
20240620110018 73 0 1.0 3.0 0.00 0.00 0.00 80 1024.6
20240620105019 73 318 1.0 3.0 0.00 0.00 0.00 81 1024.6
20240620104019 72 13 0.0 3.0 0.00 0.00 0.00 82 1024.5
20240620103018 72 344 0.0 3.0 0.00 0.00 0.00 82 1024.4
20240620102018 72 338 0.0 3.0 0.00 0.00 0.00 81 1024.4
20240620101019 72 110 0.0 2.0 0.00 0.00 0.00 81 1024.2
20240620100019 72 354 1.0 3.0 0.00 0.00 0.00 81 1024.1
20240620095019 72 344 1.0 2.0 0.00 0.00 0.00 82 1024.0
20240620094016 72 223 0.0 1.0 0.00 0.00 0.00 83 1024.0
20240620093019 72 3 0.0 2.0 0.00 0.00 0.00 84 1024.0
20240620092040 72 348 0.0 1.0 0.00 0.00 0.00 85 1024.0
20240620091037 72 182 0.0 1.0 0.00 0.00 0.00 85 1024.0
20240620090017 73 140 0.0 1.0 0.00 0.00 0.00 84 1024.0
20240620085020 73 308 0.0 2.0 0.00 0.00 0.00 84 1023.9
20240620083017 73 141 0.0 1.0 0.00 0.00 0.00 86 1023.8
20240620082037 74 131 0.0 0.0 0.00 0.00 0.00 85 1023.8
20240620081017 74 56 0.0 3.0 0.00 0.00 0.00 85 1023.7
20240620080018 74 11 0.0 3.0 0.00 0.00 0.00 86 1023.8
20240620075017 74 65 0.0 1.0 0.00 0.00 0.00 87 1023.8
20240620074018 74 52 0.0 2.0 0.00 0.00 0.00 88 1023.9
20240620073018 74 38 0.0 2.0 0.00 0.00 0.00 88 1024.0
20240620072018 74 42 0.0 2.0 0.00 0.00 0.00 89 1024.0
20240620071018 74 48 0.0 1.0 0.00 0.00 0.00 90 1024.0
20240620070018 74 109 0.0 1.0 0.00 0.00 0.00 91 1024.0
20240620065019 74 95 0.0 2.0 0.00 0.00 0.00 91 1024.0
20240620064059 74 13 0.0 1.0 0.00 0.00 0.00 91 1024.0
20240620063019 74 110 0.0 1.0 0.00 0.00 0.00 91 1024.0
20240620062059 75 56 0.0 1.0 0.00 0.00 0.00 91 1024.1
20240620061019 75 84 0.0 1.0 0.00 0.00 0.00 91 1024.0
20240620060016 75 73 0.0 1.0 0.00 0.00 0.00 91 1024.0
20240620055016 75 71 0.0 2.0 0.00 0.00 0.00 91 1024.0
20240620054019 75 73 0.0 1.0 0.00 0.00 0.00 90 1024.1
20240620053040 76 96 0.0 1.0 0.00 0.00 0.00 90 1024.2
20240620052036 76 131 0.0 2.0 0.00 0.00 0.00 89 1024.4
20240620051017 77 156 0.0 2.0 0.00 0.00 0.00 88 1024.4
20240620050017 77 288 0.0 4.0 0.00 0.00 0.00 88 1024.3
20240620045020 77 31 0.0 2.0 0.00 0.00 0.00 88 1024.3
20240620044017 77 63 0.0 1.0 0.00 0.00 0.00 87 1024.4
20240620043017 78 273 0.0 1.0 0.00 0.00 0.00 87 1024.4
20240620042017 78 55 0.0 2.0 0.00 0.00 0.00 86 1024.4
20240620041018 78 91 1.0 3.0 0.00 0.00 0.00 86 1024.5
20240620040018 78 336 0.0 2.0 0.00 0.00 0.00 86 1024.5
20240620035018 78 357 1.0 4.0 0.00 0.00 0.00 86 1024.6
20240620034018 79 27 0.0 3.0 0.00 0.00 0.00 86 1024.7
20240620033018 79 41 0.0 3.0 0.00 0.00 0.00 86 1024.9
20240620032018 79 318 1.0 5.0 0.00 0.00 0.00 86 1024.9
20240620031019 79 323 1.0 3.0 0.00 0.00 0.00 86 1025.0
20240620030018 79 42 1.0 3.0 0.00 0.00 0.00 86 1025.1
20240620025039 79 67 0.0 2.0 0.00 0.00 0.00 86 1025.1
20240620024016 79 87 0.0 1.0 0.00 0.00 0.00 84 1025.1
20240620023018 79 76 0.0 1.0 0.00 0.00 0.00 83 1025.1
20240620022039 80 80 0.0 0.0 0.00 0.00 0.00 82 1025.1
20240620021019 80 84 0.0 1.0 0.00 0.00 0.00 80 1025.0
20240620020039 81 335 0.0 1.0 0.00 0.00 0.00 79 1024.9
20240620015016 81 40 0.0 3.0 0.00 0.00 0.00 77 1024.9
20240620014019 81 344 1.0 3.0 0.00 0.00 0.00 78 1025.0
20240620013020 82 167 0.0 1.0 0.00 0.00 0.00 82 1025.0
20240620012017 82 310 0.0 3.0 0.00 0.00 0.00 82 1024.9
20240620011017 82 307 0.0 2.0 0.00 0.00 0.00 81 1024.6
20240620010037 82 337 1.0 3.0 0.00 0.00 0.00 81 1024.5
20240620005020 83 324 1.0 5.0 0.00 0.00 0.00 80 1024.3
20240620004018 83 330 1.0 3.0 0.00 0.00 0.00 81 1024.3
20240620003017 84 18 0.0 2.0 0.00 0.00 0.00 80 1024.3
20240620002018 84 332 1.0 5.0 0.00 0.00 0.00 80 1024.2
20240620001017 84 48 1.0 4.0 0.00 0.00 0.00 80 1024.2
20240620000018 85 349 0.0 2.0 0.00 0.00 0.00 80 1024.4
20240619235018 85 62 1.0 3.0 0.00 0.00 0.00 79 1024.5
20240619234018 85 335 1.0 4.0 0.00 0.00 0.00 78 1024.6
20240619233038 85 335 2.0 5.0 0.00 0.00 0.00 78 1024.6
20240619232015 86 55 1.0 4.0 0.00 0.00 0.00 79 1024.5
20240619231019 86 340 1.0 4.0 0.00 0.00 0.00 78 1024.4
20240619230018 86 39 1.0 3.0 0.00 0.00 0.00 77 1024.3
20240619225018 86 301 1.0 4.0 0.00 0.00 0.00 76 1024.3
20240619224016 87 339 1.0 5.0 0.00 0.00 0.00 76 1024.3
20240619223016 87 13 1.0 3.0 0.00 0.00 0.00 75 1024.2